This demonstration page uses our WeatherBlox Daily Observations layout. Learn more.

Left ArrowRight Arrow

Hourly Observations for August 14, 2018

Temp ( °F °C ) Dew Point ( °F °C ) Humidity (%) Winds ( mph kmh ) Pressure ( in mb ) Visibility ( mi km ) Precip ( " mm )
12:59 am 00:59 Mostly Cloudy 72 22.2 66 18.9 82 82 SSW 3 6 29.97 1015 10 16 0.00 0.00
1:59 am 01:59 Mostly Cloudy 72 22.2 67 19.4 84 84 WNW 6 9 29.96 1014 10 16 0.00 0.00
2:59 am 02:59 Mostly Cloudy 69 20.6 66 18.9 90 90 Calm 29.95 1014 10 16 0.00 0.00
3:59 am 03:59 Partly Cloudy 72 22.2 64 17.8 76 76 W 6 9 29.95 1014 10 16 0.00 0.00
4:59 am 04:59 Partly Cloudy 71 21.7 62 16.7 73 73 W 6 9 29.96 1015 10 16 0.00 0.00
5:59 am 05:59 Partly Cloudy 67 19.4 64 17.8 91 91 S 3 6 29.98 1015 10 16 0.00 0.00
6:59 am 06:59 Mostly Sunny 68 20 64 17.8 87 87 S 3 6 30.00 1016 10 16 0.00 0.00
7:59 am 07:59 Mostly Sunny 71 21.7 65 18.3 81 81 SW 6 9 29.99 1016 10 16 0.00 0.00
8:59 am 08:59 Sunny 74 23.3 64 17.8 71 71 VRB 5 7 30.00 1016 8 13 0.00 0.00
9:59 am 09:59 Mostly Sunny 75 23.9 65 18.3 71 71 W 8 13 30.00 1016 8 13 0.00 0.00
10:59 am 10:59 Sunny 78 25.6 65 18.3 64 64 W 6 9 30.00 1016 10 16 0.00 0.00
11:59 am 11:59 Mostly Sunny 80 26.7 63 17.2 56 56 W 5 7 29.99 1016 10 16 0.00 0.00
12:59 pm 12:59 Mostly Sunny 83 28.3 64 17.8 53 53 SSW 5 7 29.99 1016 10 16 0.00 0.00
1:59 pm 13:59 Partly Cloudy 84 28.9 65 18.3 53 53 WSW 8 13 29.98 1015 10 16 0.00 0.00
2:59 pm 14:59 Mostly Sunny 85 29.4 66 18.9 53 53 WNW 8 13 29.96 1014 10 16 0.00 0.00
3:59 pm 15:59 Partly Cloudy 86 30 66 18.9 51 51 WSW 9 15 29.96 1014 10 16 0.00 0.00
4:59 pm 16:59 Mostly Cloudy 85 29.4 65 18.3 51 51 SW 9 15 29.94 1014 10 16 0.00 0.00
5:59 pm 17:59 Mostly Cloudy 85 29.4 67 19.4 55 55 WSW 8 13 29.94 1014 10 16 0.00 0.00
6:59 pm 18:59 Mostly Cloudy 83 28.3 67 19.4 59 59 WSW 5 7 29.94 1014 10 16 0.00 0.00
7:59 pm 19:59 Mostly Cloudy 80 26.7 67 19.4 64 64 SSW 5 7 29.96 1015 10 16 0.00 0.00
8:59 pm 20:59 Mostly Cloudy 79 26.1 69 20.6 72 72 SSW 5 7 29.98 1015 10 16 0.00 0.00
9:59 pm 21:59 Mostly Cloudy 78 25.6 69 20.6 74 74 SW 7 11 29.98 1015 10 16 0.00 0.00
10:59 pm 22:59 Partly Cloudy 77 25 70 21.1 79 79 SW 9 15 29.99 1016 9 14 0.00 0.00
11:59 pm 23:59 Partly Cloudy 76 24.4 69 20.6 79 79 SW 8 13 30.01 1016 10 16 0.00 0.00

Powered by AerisWeather